User: anonymous   Login
Location: Igon
(43.1667°N, 0.2333°W)
Time: 07:41:24
(UTC+00:00)
Language:

FENGYUN 1C DEB - Orbit

View from above orbital plane
View from above orbital plane
View from above satellite
View from above satellite

Ground track
Ground track

The orbit data is extracted from the following two-line orbital elements,

1 35222U 99025DQE 21164.76877976  .00003463  00000-0  24490-3 0  9998
2 35222  98.9386 102.8781 0137815 352.1465   7.7595 14.98352448723022
Epoch (UTC): 13 June 2021 18:27:02
Eccentricity: 0.0137815
inclination: 98.9386°
perigee height: 476 km
apogee height: 668 km
right ascension of ascending node: 102.8781°
argument of perigee: 352.1465°
revolutions per day: 14.98352448
mean anomaly at epoch: 7.7595°
orbit number at epoch: 72302

The dashed part of the orbit path shows where the satellite is in the earth's shadow,  

DLR